Flag for India Weather for the Past 2 Weeks in Thiruvananthapuram, Kerala, India

Now
86 °F

Passing clouds.


Feels Like: 99 °F
Forecast: 83 / 92 °F
Wind: 2 mph from West

Location: Thiruvananthapuram

Current Time: May 6, 2016 at 1:46:27 AM

Latest Report: May 5, 2016 at 10:30 PM


Visibility: 2 mi

Pressure: 29.83 "Hg

Humidity: 79%

Dew Point: 79 °F

Location of ThiruvananthapuramLocation

Historic Weather in Thiruvananthapuram — Graph

°F

Thiruvananthapuram Temperature Yesterday

Maximum temperature yesterday: 93 °F (at 1:30 PM)
Minimum temperature yesterday: 82 °F (at 12:00 AM)
Average temperature yesterday: 87 °F

High & Low Weather Summary for the Past Weeks

 TemperatureHumidityPressure
High95 °F (Apr 22, 2:00 PM)100% (May 1, 3:30 PM)29.89 "Hg (May 1, 3:30 PM)
Low50 °F (Apr 22, 6:00 AM)59% (Apr 23, 11:00 AM)29.62 "Hg (Apr 24, 3:30 PM)
Average88 °F74%29.76 "Hg
* Reported Apr 20 11:30 PM — May 5 10:30 PM, Thiruvananthapuram, Weather by CustomWeather, © 2016

Note: Actual official high and low records may vary slightly from our data, if they occured in-between our weather recording intervals... More about our weather records

Advertising

Thiruvananthapuram Weather History for the Previous 24 Hours

Scroll right to see more
 ConditionsComfort  
Time TempWeatherWind HumidityBarometerVisibility
10:30 PM
Thu, May 5
86 °FPassing clouds.2 mph79%29.83 "Hg2 mi
9:30 PM86 °FPassing clouds.3 mph79%29.83 "Hg2 mi
9:00 PM84 °FLight rain. Passing clouds.No wind79%29.80 "Hg2 mi
7:30 PM90 °FPartly cloudy.3 mph75%29.77 "Hg3 mi
7:00 PM90 °FBroken clouds.5 mph71%29.74 "Hg3 mi
6:30 PM90 °FBroken clouds.5 mph75%29.74 "Hg4 mi
6:00 PM90 °FPartly sunny.5 mph75%29.71 "Hg4 mi
5:30 PM90 °FPassing clouds.6 mph75%29.71 "Hg4 mi
5:00 PM90 °FPassing clouds.6 mph71%29.68 "Hg4 mi
4:30 PM91 °FPassing clouds.6 mph67%29.68 "Hg4 mi
3:30 PM91 °FPassing clouds.9 mph63%29.68 "Hg4 mi
3:00 PM91 °FScattered clouds.6 mph67%29.71 "Hg4 mi
2:30 PM91 °FScattered clouds.9 mph67%29.71 "Hg4 mi
2:00 PM91 °FScattered clouds.8 mph67%29.74 "Hg4 mi
1:30 PM93 °FScattered clouds.7 mph63%29.74 "Hg4 mi
1:00 PM91 °FScattered clouds.N/A67%29.77 "HgN/A
12:30 PM91 °FScattered clouds.9 mph67%29.80 "Hg4 mi
12:00 PM91 °FScattered clouds.9 mph71%29.80 "Hg4 mi
11:30 AM91 °FScattered clouds.8 mph67%29.83 "Hg3 mi
11:00 AM91 °FScattered clouds.9 mph71%29.83 "Hg3 mi
10:30 AM90 °FScattered clouds.9 mph71%29.83 "Hg3 mi
10:00 AM90 °FScattered clouds.8 mph71%29.83 "Hg2 mi
9:30 AM90 °FScattered clouds.2 mph71%29.83 "Hg2 mi
9:00 AM88 °FScattered clouds.3 mph75%29.83 "Hg2 mi
8:30 AM86 °FScattered clouds.3 mph79%29.83 "Hg2 mi
8:00 AM86 °FScattered clouds.No wind75%29.83 "HgN/A
7:30 AM84 °FScattered clouds.3 mph84%29.80 "Hg2 mi
7:00 AM82 °FScattered clouds.No wind84%29.80 "Hg2 mi
6:30 AM82 °FHaze.No wind84%29.77 "Hg2 mi
6:00 AM82 °FHaze.No wind84%29.77 "Hg2 mi
5:30 AM82 °FHaze.No wind84%29.77 "Hg2 mi
5:00 AM82 °FHaze.No wind84%29.74 "Hg2 mi
4:30 AM82 °FHaze.No wind84%29.74 "Hg2 mi
4:00 AM82 °FHaze.No wind84%29.74 "Hg2 mi
3:30 AM82 °FHaze.No wind84%29.74 "Hg2 mi
2:30 AM82 °FHaze.No wind84%29.74 "Hg2 mi
1:30 AM82 °FHaze.2 mph84%29.74 "Hg2 mi
1:00 AM82 °FHaze.No wind84%29.77 "Hg2 mi
Weather by CustomWeather, © 2016

See weather overviewHow to use our weather pages